KN6KS Weather Reports


Display with metric or nautical units.
time (UTC)temp
F
wind
direction
speed
MPH
gust
MPH
rain 1hr
in
rain 24hr
in
rain mn
in
humidity
%
barometer
mb
20260905045332 66 249 1.0 1.0 0.00 0.00 0.00 57 1014.1
20260905044827 67 276 4.0 5.0 0.00 0.00 0.00 56 1013.9
20260905044323 67 283 2.0 2.0 0.00 0.00 0.00 56 1013.8
20260905043823 67 300 4.0 5.0 0.00 0.00 0.00 56 1014.0
20260905043316 67 263 3.0 3.0 0.00 0.00 0.00 56 1013.8
20260905042811 67 273 4.0 5.0 0.00 0.00 0.00 56 1013.8
20260905042311 67 248 1.0 2.0 0.00 0.00 0.00 55 1013.5
20260905041805 67 236 2.0 2.0 0.00 0.00 0.00 56 1013.4
20260905041302 67 266 2.0 2.0 0.00 0.00 0.00 56 1013.8
20260905040756 67 286 2.0 3.0 0.00 0.00 0.00 58 1013.6
20260905040255 68 257 2.0 2.0 0.00 0.00 0.00 57 1013.5
20260905035750 68 324 0.0 0.0 0.00 0.00 0.00 56 1013.5
20260905035246 68 264 3.0 3.0 0.00 0.00 0.00 56 1013.2
20260905034743 68 256 3.0 3.0 0.00 0.00 0.00 57 1013.1
20260905034242 68 252 3.0 5.0 0.00 0.00 0.00 57 1013.0
20260905033741 68 271 3.0 3.0 0.00 0.00 0.00 58 1013.1
20260905033237 69 276 2.0 3.0 0.00 0.00 0.00 58 1013.4
20260905032736 69 282 5.0 6.0 0.00 0.00 0.00 58 1013.3
20260905032232 69 311 4.0 6.0 0.00 0.00 0.00 57 1013.2
20260905031727 70 287 6.0 8.0 0.00 0.00 0.00 55 1013.1
20260905031223 70 278 4.0 6.0 0.00 0.00 0.00 52 1012.9
20260905030717 71 239 5.0 6.0 0.00 0.00 0.00 48 1012.8
20260905030212 71 302 4.0 5.0 0.00 0.00 0.00 46 1012.7
20260905025708 71 246 0.0 0.0 0.00 0.00 0.00 44 1012.4
20260905025203 72 351 7.0 8.0 0.00 0.00 0.00 39 1012.6
20260905024658 72 34 5.0 6.0 0.00 0.00 0.00 39 1012.5
20260905024154 72 258 4.0 5.0 0.00 0.00 0.00 37 1012.2
20260905023649 72 84 5.0 6.0 0.00 0.00 0.00 35 1012.2
20260905023149 73 234 1.0 2.0 0.00 0.00 0.00 34 1012.5
20260905022648 73 48 7.0 8.0 0.00 0.00 0.00 34 1012.1
20260905022143 73 248 2.0 3.0 0.00 0.00 0.00 34 1012.7
20260905021643 73 141 6.0 9.0 0.00 0.00 0.00 34 1012.6
20260905021139 74 96 5.0 7.0 0.00 0.00 0.00 33 1012.5
20260905020633 74 79 3.0 5.0 0.00 0.00 0.00 34 1012.1
20260905020128 74 284 4.0 7.0 0.00 0.00 0.00 33 1012.1
20260905015626 75 153 9.0 11.0 0.00 0.00 0.00 32 1012.2
20260905015121 75 60 2.0 2.0 0.00 0.00 0.00 32 1012.2
20260905014615 75 191 8.0 10.0 0.00 0.00 0.00 32 1011.9
20260905014111 75 194 8.0 11.0 0.00 0.00 0.00 33 1011.8
20260905013608 75 206 8.0 10.0 0.00 0.00 0.00 34 1011.8
20260905013103 75 229 8.0 10.0 0.00 0.00 0.00 34 1012.0
20260905012602 75 232 9.0 13.0 0.00 0.00 0.00 35 1011.8
20260905012100 76 223 15.0 17.0 0.00 0.00 0.00 34 1011.8
20260905011555 76 255 9.0 10.0 0.00 0.00 0.00 34 1011.6
20260905011050 76 238 20.0 25.0 0.00 0.00 0.00 34 1011.8
20260905010545 77 225 18.0 22.0 0.00 0.00 0.00 34 1011.7
20260905010041 77 237 11.0 17.0 0.00 0.00 0.00 34 1011.7
20260905005536 76 251 19.0 24.0 0.00 0.00 0.00 35 1011.4
20260905005032 77 232 19.0 23.0 0.00 0.00 0.00 33 1011.4
20260905004526 77 253 22.0 27.0 0.00 0.00 0.00 35 1011.2
20260905004021 77 255 26.0 29.0 0.00 0.00 0.00 36 1011.4
20260905003517 77 236 18.0 22.0 0.00 0.00 0.00 35 1011.5
20260905003013 77 237 26.0 33.0 0.00 0.00 0.00 34 1011.1
20260905002508 77 264 24.0 26.0 0.00 0.00 0.00 37 1011.4
20260905002002 77 250 25.0 29.0 0.00 0.00 0.00 36 1011.2
20260905001457 77 250 17.0 20.0 0.00 0.00 0.00 36 1011.0
20260905000951 78 234 23.0 31.0 0.00 0.00 0.00 36 1011.2
20260905000447 78 204 16.0 20.0 0.00 0.00 0.00 36 1010.9
20260904235943 78 266 16.0 21.0 0.00 0.00 0.00 37 1011.0
20260904235438 78 229 28.0 35.0 0.00 0.00 0.00 35 1011.0
20260904234938 78 265 21.0 25.0 0.00 0.00 0.00 35 1011.2
20260904234438 78 253 26.0 33.0 0.00 0.00 0.00 36 1011.1
20260904233934 79 243 13.0 15.0 0.00 0.00 0.00 34 1011.0
20260904233429 79 245 20.0 23.0 0.00 0.00 0.00 35 1010.6
20260904232925 79 247 17.0 23.0 0.00 0.00 0.00 34 1011.1
20260904232421 79 247 14.0 18.0 0.00 0.00 0.00 33 1011.0
20260904231918 80 222 13.0 17.0 0.00 0.00 0.00 32 1011.0
20260904231413 79 231 20.0 26.0 0.00 0.00 0.00 31 1010.7
20260904230908 80 211 27.0 33.0 0.00 0.00 0.00 32 1011.1
20260904230406 79 216 19.0 30.0 0.00 0.00 0.00 32 1011.1
20260904225902 80 253 15.0 17.0 0.00 0.00 0.00 30 1011.3
20260904225400 80 225 20.0 33.0 0.00 0.00 0.00 28 1011.0
20260904224859 80 232 12.0 14.0 0.00 0.00 0.00 29 1010.9
20260904224355 80 242 19.0 22.0 0.00 0.00 0.00 29 1011.0
20260904223855 80 270 15.0 20.0 0.00 0.00 0.00 30 1010.9
20260904223354 80 212 17.0 24.0 0.00 0.00 0.00 32 1011.1
20260904222851 79 218 17.0 23.0 0.00 0.00 0.00 32 1010.9
20260904222351 80 265 17.0 20.0 0.00 0.00 0.00 31 1011.1
20260904221850 79 271 21.0 25.0 0.00 0.00 0.00 31 1011.1
20260904221346 80 263 20.0 26.0 0.00 0.00 0.00 33 1011.2
20260904220841 80 247 20.0 23.0 0.00 0.00 0.00 32 1011.5
20260904220340 80 242 15.0 17.0 0.00 0.00 0.00 33 1011.2
20260904215835 80 261 13.0 16.0 0.00 0.00 0.00 32 1011.4
20260904215331 80 255 22.0 29.0 0.00 0.00 0.00 32 1011.6
20260904214827 81 246 15.0 17.0 0.00 0.00 0.00 31 1011.5
20260904214322 81 196 4.0 5.0 0.00 0.00 0.00 31 1011.7
20260904213820 80 217 14.0 15.0 0.00 0.00 0.00 32 1011.8
20260904213316 80 230 19.0 24.0 0.00 0.00 0.00 30 1011.6
20260904212812 80 256 9.0 11.0 0.00 0.00 0.00 31 1011.7
20260904212312 80 189 12.0 18.0 0.00 0.00 0.00 31 1011.7
20260904211807 81 199 4.0 11.0 0.00 0.00 0.00 31 1011.7
20260904211302 80 250 14.0 15.0 0.00 0.00 0.00 31 1011.6
20260904210757 81 222 4.0 6.0 0.00 0.00 0.00 31 1012.0
20260904210256 80 344 3.0 5.0 0.00 0.00 0.00 31 1012.1
20260904205753 79 209 12.0 13.0 0.00 0.00 0.00 30 1011.9
20260904205248 80 265 12.0 14.0 0.00 0.00 0.00 32 1012.1
20260904204745 80 182 8.0 10.0 0.00 0.00 0.00 31 1012.1
20260904204241 80 279 9.0 11.0 0.00 0.00 0.00 30 1012.1
20260904203737 80 290 12.0 15.0 0.00 0.00 0.00 31 1012.2
20260904203233 80 265 16.0 20.0 0.00 0.00 0.00 30 1012.2
20260904202729 80 313 7.0 10.0 0.00 0.00 0.00 30 1012.6
20260904202225 79 227 4.0 6.0 0.00 0.00 0.00 29 1012.5
20260904201720 80 287 7.0 9.0 0.00 0.00 0.00 30 1012.5
20260904201220 80 235 5.0 6.0 0.00 0.00 0.00 30 1012.7
20260904200714 79 258 8.0 10.0 0.00 0.00 0.00 29 1012.7
20260904200209 79 223 8.0 10.0 0.00 0.00 0.00 30 1012.6
20260904195708 79 285 11.0 15.0 0.00 0.00 0.00 30 1012.6
20260904195207 79 166 9.0 11.0 0.00 0.00 0.00 31 1012.7
20260904194702 78 222 13.0 14.0 0.00 0.00 0.00 30 1012.9
20260904194156 79 269 9.0 10.0 0.00 0.00 0.00 29 1012.8
20260904193651 78 270 10.0 13.0 0.00 0.00 0.00 30 1012.9
20260904193147 78 287 11.0 14.0 0.00 0.00 0.00 31 1012.9
20260904192647 79 243 7.0 9.0 0.00 0.00 0.00 30 1012.9
20260904192143 78 328 6.0 8.0 0.00 0.00 0.00 31 1013.0
20260904191640 78 287 9.0 11.0 0.00 0.00 0.00 30 1013.0
20260904191136 78 282 7.0 8.0 0.00 0.00 0.00 30 1013.1
20260904190631 77 269 4.0 9.0 0.00 0.00 0.00 30 1013.2
20260904190127 77 281 10.0 11.0 0.00 0.00 0.00 30 1013.3
20260904185624 77 283 9.0 13.0 0.00 0.00 0.00 29 1013.4
20260904185118 78 291 7.0 9.0 0.00 0.00 0.00 28 1013.1
20260904184617 77 262 9.0 11.0 0.00 0.00 0.00 28 1013.2
20260904184113 77 269 5.0 8.0 0.00 0.00 0.00 29 1013.2
20260904183608 77 256 5.0 7.0 0.00 0.00 0.00 28 1013.3
20260904183102 77 275 7.0 8.0 0.00 0.00 0.00 29 1013.5
20260904182558 76 286 9.0 15.0 0.00 0.00 0.00 28 1013.2
20260904182053 77 232 6.0 8.0 0.00 0.00 0.00 28 1013.4
20260904181549 76 214 7.0 8.0 0.00 0.00 0.00 28 1013.5
20260904181048 76 236 10.0 11.0 0.00 0.00 0.00 28 1013.2
20260904180543 77 245 8.0 13.0 0.00 0.00 0.00 26 1013.2
20260904180038 77 234 7.0 9.0 0.00 0.00 0.00 27 1013.2
20260904175538 76 252 11.0 15.0 0.00 0.00 0.00 26 1013.2
20260904175036 77 232 15.0 16.0 0.00 0.00 0.00 26 1013.2
20260904174532 76 222 10.0 13.0 0.00 0.00 0.00 27 1012.9
20260904174029 76 249 9.0 10.0 0.00 0.00 0.00 26 1012.8
20260904173528 76 220 9.0 11.0 0.00 0.00 0.00 27 1012.8
20260904173024 76 213 11.0 13.0 0.00 0.00 0.00 28 1013.1
20260904172520 75 233 20.0 25.0 0.00 0.00 0.00 28 1013.0
20260904172019 75 231 18.0 21.0 0.00 0.00 0.00 30 1012.6
20260904171514 76 187 15.0 18.0 0.00 0.00 0.00 30 1012.7
20260904171010 75 254 11.0 14.0 0.00 0.00 0.00 30 1012.6
20260904170505 74 207 17.0 22.0 0.00 0.00 0.00 31 1012.5
20260904170001 75 240 15.0 21.0 0.00 0.00 0.00 30 1012.6
20260904165500 74 219 16.0 17.0 0.00 0.00 0.00 32 1012.7
20260904164959 74 224 22.0 27.0 0.00 0.00 0.00 30 1012.5
20260904164454 74 258 9.0 15.0 0.00 0.00 0.00 30 1012.5
20260904163950 74 219 9.0 10.0 0.00 0.00 0.00 31 1012.2
20260904163444 74 210 4.0 7.0 0.00 0.00 0.00 32 1012.8
20260904162944 74 224 13.0 14.0 0.00 0.00 0.00 31 1012.5
20260904162439 74 38 5.0 6.0 0.00 0.00 0.00 32 1012.5
20260904161934 74 159 1.0 2.0 0.00 0.00 0.00 33 1012.5
20260904161429 74 98 3.0 5.0 0.00 0.00 0.00 33 1012.6
20260904160926 73 155 2.0 2.0 0.00 0.00 0.00 33 1013.0
20260904160426 73 51 1.0 1.0 0.00 0.00 0.00 34 1012.5
20260904155921 73 263 0.0 0.0 0.00 0.00 0.00 35 1012.6
20260904155415 73 41 2.0 2.0 0.00 0.00 0.00 35 1012.5
20260904154914 73 324 3.0 5.0 0.00 0.00 0.00 35 1012.6
20260904154409 72 49 4.0 6.0 0.00 0.00 0.00 36 1012.8
20260904153905 72 78 3.0 3.0 0.00 0.00 0.00 36 1012.7
20260904153405 71 285 3.0 3.0 0.00 0.00 0.00 37 1012.6
20260904152902 71 122 5.0 5.0 0.00 0.00 0.00 37 1012.8
20260904152356 70 95 4.0 5.0 0.00 0.00 0.00 39 1012.7
20260904151855 69 258 4.0 6.0 0.00 0.00 0.00 40 1012.6
20260904151350 70 338 1.0 1.0 0.00 0.00 0.00 40 1012.6
20260904150846 70 193 4.0 5.0 0.00 0.00 0.00 40 1012.6
20260904150341 69 188 1.0 1.0 0.00 0.00 0.00 42 1012.6
20260904145838 68 164 2.0 3.0 0.00 0.00 0.00 43 1012.6
20260904145335 68 254 0.0 1.0 0.00 0.00 0.00 44 1012.5
20260904144830 68 8 5.0 6.0 0.00 0.00 0.00 43 1012.4
20260904144326 67 233 0.0 0.0 0.00 0.00 0.00 45 1012.4
20260904143821 66 240 0.0 0.0 0.00 0.00 0.00 48 1012.2
20260904143318 65 253 3.0 3.0 0.00 0.00 0.00 50 1012.2
20260904142814 64 263 3.0 3.0 0.00 0.00 0.00 52 1011.9
20260904142309 64 210 5.0 6.0 0.00 0.00 0.00 53 1012.2
20260904141804 64 319 3.0 3.0 0.00 0.00 0.00 52 1012.0
20260904141259 63 291 3.0 3.0 0.00 0.00 0.00 52 1012.1
20260904140755 62 298 4.0 6.0 0.00 0.00 0.00 53 1012.0
20260904140250 62 284 3.0 3.0 0.00 0.00 0.00 53 1012.1
20260904135749 62 261 0.0 1.0 0.00 0.00 0.00 55 1012.1
20260904135244 62 270 2.0 3.0 0.00 0.00 0.00 53 1011.9
20260904134741 62 279 4.0 5.0 0.00 0.00 0.00 52 1012.0
20260904134240 62 299 5.0 7.0 0.00 0.00 0.00 52 1012.1
20260904133735 62 269 5.0 7.0 0.00 0.00 0.00 49 1011.7
20260904133231 62 282 1.0 2.0 0.00 0.00 0.00 50 1011.7
20260904132730 62 301 3.0 3.0 0.00 0.00 0.00 49 1011.6
20260904132226 62 304 1.0 1.0 0.00 0.00 0.00 50 1011.6
20260904131724 62 243 0.0 0.0 0.00 0.00 0.00 50 1011.6
20260904131221 62 248 3.0 3.0 0.00 0.00 0.00 50 1011.6
20260904130715 62 250 3.0 3.0 0.00 0.00 0.00 50 1011.7
20260904130214 62 353 6.0 7.0 0.00 0.00 0.00 51 1011.5
20260904125710 62 326 4.0 5.0 0.00 0.00 0.00 51 1011.3
20260904125206 62 259 6.0 7.0 0.00 0.00 0.00 51 1011.3
20260904124701 61 30 7.0 8.0 0.00 0.00 0.00 54 1011.4
20260904124156 62 147 0.0 1.0 0.00 0.00 0.00 54 1011.5
20260904123657 62 10 2.0 3.0 0.00 0.00 0.00 53 1011.3
20260904123153 62 289 1.0 2.0 0.00 0.00 0.00 51 1011.6
20260904122652 62 354 3.0 3.0 0.00 0.00 0.00 51 1011.6
20260904122147 63 8 8.0 9.0 0.00 0.00 0.00 50 1011.5
20260904121642 65 60 3.0 5.0 0.00 0.00 0.00 43 1011.6
20260904121138 66 146 5.0 7.0 0.00 0.00 0.00 37 1011.4
20260904120634 66 224 5.0 7.0 0.00 0.00 0.00 38 1011.4
20260904120131 66 237 17.0 23.0 0.00 0.00 0.00 38 1011.3
20260904115631 66 228 15.0 20.0 0.00 0.00 0.00 38 1011.4
20260904115125 65 253 14.0 18.0 0.00 0.00 0.00 40 1011.0
20260904114620 65 221 17.0 20.0 0.00 0.00 0.00 42 1011.4
20260904114115 65 254 13.0 15.0 0.00 0.00 0.00 42 1011.3
20260904113615 65 272 12.0 13.0 0.00 0.00 0.00 43 1011.3
20260904113114 65 233 16.0 20.0 0.00 0.00 0.00 44 1011.2
20260904112609 65 252 14.0 16.0 0.00 0.00 0.00 43 1011.4
20260904112105 65 251 16.0 17.0 0.00 0.00 0.00 44 1011.1
20260904111601 66 231 10.0 11.0 0.00 0.00 0.00 43 1011.4
20260904111056 66 250 15.0 18.0 0.00 0.00 0.00 43 1011.3
20260904110550 66 243 17.0 25.0 0.00 0.00 0.00 43 1011.4
20260904110046 66 216 13.0 16.0 0.00 0.00 0.00 42 1011.4
20260904105545 66 257 16.0 20.0 0.00 0.00 0.00 42 1011.3
20260904105040 66 240 14.0 18.0 0.00 0.00 0.00 41 1011.3
20260904104536 66 231 16.0 21.0 0.00 0.00 0.00 42 1011.4
20260904104031 67 229 13.0 16.0 0.00 0.00 0.00 42 1011.1
20260904103527 66 237 17.0 20.0 0.00 0.00 0.00 42 1011.0
20260904103023 66 259 13.0 17.0 0.00 0.00 0.00 44 1011.2
20260904102519 66 240 15.0 17.0 0.00 0.00 0.00 44 1011.4
20260904102014 66 240 16.0 21.0 0.00 0.00 0.00 44 1011.2
20260904101511 66 257 13.0 16.0 0.00 0.00 0.00 44 1011.3
20260904101006 66 254 11.0 14.0 0.00 0.00 0.00 44 1011.5
20260904100502 66 226 14.0 17.0 0.00 0.00 0.00 44 1011.2
20260904100001 66 241 17.0 23.0 0.00 0.00 0.00 45 1011.1
20260904095456 66 287 15.0 20.0 0.00 0.00 0.00 46 1011.3
20260904094951 66 219 15.0 17.0 0.00 0.00 0.00 47 1011.1
20260904094446 66 241 9.0 11.0 0.00 0.00 0.00 47 1011.2
20260904093942 66 214 12.0 15.0 0.00 0.00 0.00 47 1011.3
20260904093438 66 268 12.0 14.0 0.00 0.00 0.00 49 1011.3
20260904092933 65 231 13.0 16.0 0.00 0.00 0.00 51 1011.5
20260904092429 65 229 12.0 15.0 0.00 0.00 0.00 52 1011.3
20260904091925 65 245 12.0 16.0 0.00 0.00 0.00 53 1011.3
20260904091420 65 246 18.0 20.0 0.00 0.00 0.00 52 1011.4
20260904090909 65 239 15.0 18.0 0.00 0.00 0.00 53 1011.3
20260904090406 65 241 14.0 15.0 0.00 0.00 0.00 53 1011.4
20260904085900 65 244 17.0 18.0 0.00 0.00 0.00 53 1011.3
20260904085356 65 243 19.0 24.0 0.00 0.00 0.00 52 1011.5
20260904084855 66 226 11.0 14.0 0.00 0.00 0.00 52 1011.3
20260904084352 66 208 15.0 18.0 0.00 0.00 0.00 50 1011.4
20260904083847 66 229 18.0 21.0 0.00 0.00 0.00 51 1011.5
20260904083343 66 229 16.0 21.0 0.00 0.00 0.00 50 1011.8
20260904082839 66 252 16.0 22.0 0.00 0.00 0.00 50 1011.4
20260904082333 66 263 18.0 23.0 0.00 0.00 0.00 50 1011.6
20260904081828 66 225 15.0 18.0 0.00 0.00 0.00 51 1011.4
20260904081324 66 209 12.0 15.0 0.00 0.00 0.00 50 1011.8
20260904080820 66 248 14.0 15.0 0.00 0.00 0.00 52 1011.6
20260904080315 66 254 16.0 18.0 0.00 0.00 0.00 53 1011.8
20260904075812 66 223 20.0 22.0 0.00 0.00 0.00 54 1011.7
20260904075307 66 240 12.0 14.0 0.00 0.00 0.00 55 1011.8
20260904074805 66 245 15.0 18.0 0.00 0.00 0.00 54 1011.9
20260904074300 66 208 11.0 15.0 0.00 0.00 0.00 52 1011.8
20260904073756 66 241 12.0 14.0 0.00 0.00 0.00 51 1011.7
20260904073251 66 244 21.0 23.0 0.00 0.00 0.00 52 1011.6
20260904072748 67 200 10.0 11.0 0.00 0.00 0.00 50 1011.8
20260904072246 66 241 12.0 17.0 0.00 0.00 0.00 51 1011.7
20260904071742 66 239 19.0 23.0 0.00 0.00 0.00 51 1011.7
20260904071237 67 244 13.0 15.0 0.00 0.00 0.00 50 1011.7
20260904070732 67 255 17.0 18.0 0.00 0.00 0.00 49 1011.8
20260904070231 67 234 12.0 13.0 0.00 0.00 0.00 49 1011.6
20260904065726 67 263 17.0 22.0 0.00 0.00 0.00 47 1011.6
20260904065223 67 245 8.0 9.0 0.00 0.00 0.00 45 1011.6
20260904064722 67 248 13.0 17.0 0.00 0.00 0.00 45 1011.6
20260904064218 67 238 12.0 17.0 0.00 0.00 0.00 45 1011.7
20260904063714 68 258 7.0 9.0 0.00 0.00 0.00 45 1011.5
20260904063210 67 238 11.0 14.0 0.00 0.00 0.00 45 1011.4
20260904062705 67 243 13.0 20.0 0.00 0.00 0.00 47 1011.3
20260904062201 67 267 7.0 10.0 0.00 0.00 0.00 47 1011.3
20260904061656 67 269 11.0 13.0 0.00 0.00 0.00 47 1011.5
20260904061153 67 263 12.0 14.0 0.00 0.00 0.00 49 1011.4
20260904060649 67 244 10.0 11.0 0.00 0.00 0.00 51 1011.5
20260904060145 67 251 14.0 18.0 0.00 0.00 0.00 49 1011.6
20260904055638 67 254 11.0 13.0 0.00 0.00 0.00 48 1011.7
20260904055134 67 254 16.0 21.0 0.00 0.00 0.00 49 1011.5
20260904054629 67 200 5.0 7.0 0.00 0.00 0.00 50 1011.4
20260904054125 67 267 9.0 10.0 0.00 0.00 0.00 49 1011.5
20260904053620 67 250 8.0 10.0 0.00 0.00 0.00 48 1011.4
20260904053115 67 243 10.0 11.0 0.00 0.00 0.00 47 1011.2
20260904052612 67 252 7.0 9.0 0.00 0.00 0.00 48 1011.6
20260904052107 67 230 12.0 15.0 0.00 0.00 0.00 48 1011.5
20260904051603 67 233 14.0 17.0 0.00 0.00 0.00 48 1011.6
20260904051103 68 219 10.0 11.0 0.00 0.00 0.00 48 1011.6
20260904050559 68 241 20.0 23.0 0.00 0.00 0.00 49 1011.7
20260904050055 68 202 16.0 18.0 0.00 0.00 0.00 51 1011.8
20260904045549 68 225 15.0 18.0 0.00 0.00 0.00 52 1011.7